KB7YYZ Weather Reports


time (UTC)temp
F
wind
direction
speed
knots
gust
knots
rain 1hr
in
rain 24hr
in
rain mn
in
humidity
%
barometer
mb
20230208164050 62 68 0.9 0.9 0.00 0.00 0.00 35 1022.7
20230208163547 61 68 0.9 0.9 0.00 0.00 0.00 35 1022.7
20230208163050 61 68 0.9 0.9 0.00 0.00 0.00 35 1022.7
20230208162551 60 68 0.9 1.7 0.00 0.00 0.00 36 1023.0
20230208162047 60 113 0.9 1.7 0.00 0.00 0.00 37 1022.9
20230208161547 60 90 0.9 0.9 0.00 0.00 0.00 38 1022.9
20230208161050 59 135 0.9 0.9 0.00 0.00 0.00 39 1022.9
20230208160547 58 68 0.9 1.7 0.00 0.00 0.00 40 1023.0
20230208160047 57 45 0.9 0.9 0.00 0.00 0.00 41 1022.9
20230208155548 56 45 0.9 2.6 0.00 0.00 0.00 43 1022.9
20230208155048 55 68 0.9 2.6 0.00 0.00 0.00 43 1022.9
20230208154550 54 45 0.9 2.6 0.00 0.00 0.00 45 1022.9
20230208154050 53 113 1.7 1.7 0.00 0.00 0.00 46 1022.9
20230208153547 52 68 1.7 2.6 0.00 0.00 0.00 48 1022.9
20230208153050 50 90 1.7 2.6 0.00 0.00 0.00 49 1022.9
20230208152551 49 68 0.9 1.7 0.00 0.00 0.00 50 1022.8
20230208152050 47 90 1.7 1.7 0.00 0.00 0.00 51 1022.8
20230208151547 46 113 1.7 1.7 0.00 0.00 0.00 52 1022.8
20230208151050 44 68 1.7 1.7 0.00 0.00 0.00 53 1022.8
20230208150550 43 68 1.7 2.6 0.00 0.00 0.00 53 1022.8
20230208150048 41 113 1.7 2.6 0.00 0.00 0.00 54 1022.8
20230208145548 39 68 1.7 2.6 0.00 0.00 0.00 54 1022.8
20230208145048 38 90 1.7 3.5 0.00 0.00 0.00 54 1022.8
20230208144550 37 68 1.7 2.6 0.00 0.00 0.00 54 1022.4
20230208144047 36 68 0.9 1.7 0.00 0.00 0.00 55 1022.5
20230208143547 36 45 0.9 0.9 0.00 0.00 0.00 55 1022.5
20230208143047 35 45 1.7 1.7 0.00 0.00 0.00 55 1022.5
20230208142551 35 45 1.7 1.7 0.00 0.00 0.00 55 1022.4
20230208142047 35 68 0.9 1.7 0.00 0.00 0.00 55 1022.4
20230208141550 35 68 1.7 1.7 0.00 0.00 0.00 55 1022.4
20230208141047 35 68 1.7 1.7 0.00 0.00 0.00 55 1022.5
20230208140550 35 68 1.7 1.7 0.00 0.00 0.00 55 1022.5
20230208140050 35 68 1.7 1.7 0.00 0.00 0.00 55 1022.5
20230208135548 35 68 1.7 1.7 0.00 0.00 0.00 55 1022.5
20230208135050 35 113 1.7 1.7 0.00 0.00 0.00 55 1022.6
20230208134548 35 90 1.7 1.7 0.00 0.00 0.00 55 1021.4
20230208134050 35 90 0.9 2.6 0.00 0.00 0.00 55 1021.5
20230208133547 35 45 0.0 0.9 0.00 0.00 0.00 54 1021.5
20230208133050 35 315 0.0 0.0 0.00 0.00 0.00 54 1021.5
20230208132551 35 68 0.0 0.9 0.00 0.00 0.00 54 1020.8
20230208132051 35 113 0.0 0.9 0.00 0.00 0.00 54 1020.9
20230208131550 35 113 0.0 0.9 0.00 0.00 0.00 54 1020.9
20230208131047 36 68 1.7 0.9 0.00 0.00 0.00 54 1020.9
20230208130547 36 68 1.7 0.9 0.00 0.00 0.00 54 1021.0
20230208130047 36 68 1.7 1.7 0.00 0.00 0.00 54 1021.0
20230208125548 35 45 1.7 2.6 0.00 0.00 0.00 54 1021.1
20230208125050 36 113 0.9 1.7 0.00 0.00 0.00 54 1021.1
20230208124550 36 68 0.9 1.7 0.00 0.00 0.00 53 1021.2
20230208124047 36 90 0.9 1.7 0.00 0.00 0.00 53 1021.2
20230208123550 36 68 0.9 0.9 0.00 0.00 0.00 53 1021.3
20230208123050 36 68 0.9 2.6 0.00 0.00 0.00 53 1021.3
20230208122548 36 45 1.7 2.6 0.00 0.00 0.00 53 1021.5
20230208122050 36 90 0.9 2.6 0.00 0.00 0.00 53 1021.5
20230208121550 36 90 0.0 1.7 0.00 0.00 0.00 53 1021.6
20230208121050 36 158 0.9 1.7 0.00 0.00 0.00 53 1021.6
20230208120547 36 23 0.9 1.7 0.00 0.00 0.00 53 1021.7
20230208120050 36 338 0.9 0.9 0.00 0.00 0.00 53 1021.8
20230208115548 36 45 0.9 0.9 0.00 0.00 0.00 53 1021.8
20230208115050 36 68 0.9 0.9 0.00 0.00 0.00 52 1021.8
20230208114547 37 113 0.9 0.9 0.00 0.00 0.00 52 1021.9
20230208114051 37 68 0.9 0.9 0.00 0.00 0.00 52 1022.0
20230208113547 37 45 0.0 0.9 0.00 0.00 0.00 52 1022.0
20230208113050 37 68 0.0 0.9 0.00 0.00 0.00 52 1022.0
20230208112551 37 248 0.0 0.9 0.00 0.00 0.00 52 1021.9
20230208112047 37 248 0.0 0.9 0.00 0.00 0.00 52 1021.9
20230208111550 37 68 0.0 0.9 0.00 0.00 0.00 52 1021.9
20230208111048 38 45 0.0 0.9 0.00 0.00 0.00 52 1022.0
20230208110547 38 45 0.9 1.7 0.00 0.00 0.00 52 1022.0
20230208110047 38 68 0.9 1.7 0.00 0.00 0.00 51 1022.1
20230208105551 38 90 0.9 0.9 0.00 0.00 0.00 51 1022.1
20230208105050 38 113 0.9 0.9 0.00 0.00 0.00 51 1022.1
20230208104547 38 135 0.9 0.9 0.00 0.00 0.00 51 1022.2
20230208104047 38 90 1.7 1.7 0.00 0.00 0.00 51 1022.2
20230208103550 38 45 1.7 2.6 0.00 0.00 0.00 51 1022.2
20230208103047 38 68 0.9 1.7 0.00 0.00 0.00 51 1022.2
20230208102548 39 113 0.9 0.9 0.00 0.00 0.00 50 1022.4
20230208102047 39 23 0.9 0.9 0.00 0.00 0.00 50 1022.4
20230208101550 39 45 0.9 1.7 0.00 0.00 0.00 50 1022.4
20230208101048 39 45 0.9 1.7 0.00 0.00 0.00 50 1022.5
20230208100550 39 68 0.9 1.7 0.00 0.00 0.00 50 1022.4
20230208100047 39 68 0.9 0.9 0.00 0.00 0.00 50 1022.4
20230208095548 39 45 0.9 1.7 0.00 0.00 0.00 50 1022.4
20230208095050 39 68 0.9 1.7 0.00 0.00 0.00 49 1022.5
20230208094550 39 90 0.0 0.9 0.00 0.00 0.00 49 1022.8
20230208094051 40 113 0.0 0.0 0.00 0.00 0.00 49 1022.9
20230208093547 40 203 0.9 0.9 0.00 0.00 0.00 49 1022.9
20230208093047 40 338 0.0 2.6 0.00 0.00 0.00 49 1022.9
20230208092548 40 135 0.0 0.9 0.00 0.00 0.00 49 1022.8
20230208092047 40 45 0.9 0.9 0.00 0.00 0.00 48 1022.8
20230208091547 40 180 1.7 2.6 0.00 0.00 0.00 48 1022.8
20230208091050 41 248 1.7 2.6 0.00 0.00 0.00 48 1022.9
20230208090547 41 45 1.7 2.6 0.00 0.00 0.00 48 1022.8
20230208090050 41 23 0.9 2.6 0.00 0.00 0.00 48 1022.8
20230208085551 41 68 1.7 1.7 0.00 0.00 0.00 48 1022.8
20230208085050 41 45 1.7 2.6 0.00 0.00 0.00 48 1022.8
20230208084550 41 45 1.7 2.6 0.00 0.00 0.00 48 1023.2
20230208084047 41 23 0.9 1.7 0.00 0.00 0.00 48 1023.2
20230208083548 41 315 0.0 0.9 0.00 0.00 0.00 47 1023.3
20230208083050 42 90 0.0 0.0 0.00 0.00 0.00 47 1023.3
20230208082548 42 23 0.0 0.0 0.00 0.00 0.00 47 1023.6
20230208082050 42 23 0.9 0.9 0.00 0.00 0.00 47 1023.6
20230208081547 42 23 1.7 1.7 0.00 0.00 0.00 47 1023.6
20230208081047 42 90 1.7 2.6 0.00 0.00 0.00 47 1023.7
20230208080550 42 45 1.7 2.6 0.00 0.00 0.00 47 1023.3
20230208080051 42 90 1.7 2.6 0.00 0.00 0.00 46 1023.3
20230208075551 43 68 1.7 1.7 0.00 0.00 0.00 46 1023.4
20230208075047 43 45 1.7 1.7 0.00 0.00 0.00 46 1023.4
20230208074547 43 45 1.7 1.7 0.00 0.00 0.00 45 1023.2
20230208074047 43 68 1.7 1.7 0.00 0.00 0.00 45 1023.2
20230208073551 43 23 1.7 2.6 0.00 0.00 0.00 45 1023.2
20230208073050 43 45 0.9 2.6 0.00 0.00 0.00 45 1023.2
20230208072551 43 90 1.7 1.7 0.00 0.00 0.00 45 1023.3
20230208072050 44 68 1.7 2.6 0.00 0.00 0.00 45 1023.3
20230208071550 44 68 1.7 2.6 0.00 0.00 0.00 44 1023.4
20230208071047 44 68 0.9 2.6 0.00 0.00 0.00 44 1023.4
20230208070550 44 23 0.0 0.0 0.00 0.00 0.00 43 1023.3
20230208070048 44 23 0.0 0.0 0.00 0.00 0.00 43 1023.4
20230208065551 45 45 0.9 0.9 0.00 0.00 0.00 43 1023.4
20230208065050 45 68 0.9 2.6 0.00 0.00 0.00 43 1023.4
20230208064550 45 45 0.9 2.6 0.00 0.00 0.00 43 1023.6
20230208064047 45 90 0.9 1.7 0.00 0.00 0.00 42 1023.6
20230208063547 46 68 0.0 0.9 0.00 0.00 0.00 42 1023.6
20230208063050 46 135 0.0 0.9 0.00 0.00 0.00 41 1023.7
20230208062548 46 135 0.9 0.9 0.00 0.00 0.00 41 1023.6
20230208062047 47 23 1.7 1.7 0.00 0.00 0.00 41 1023.6
20230208061547 47 315 1.7 3.5 0.00 0.00 0.00 41 1023.6
20230208061047 47 338 1.7 1.7 0.00 0.00 0.00 41 1023.6
20230208060550 47 338 2.6 3.5 0.00 0.00 0.00 41 1023.6
20230208060047 47 23 2.6 4.3 0.00 0.00 0.00 41 1023.6
20230208055551 48 23 2.6 3.5 0.00 0.00 0.00 41 1023.6
20230208055047 48 0 2.6 3.5 0.00 0.00 0.00 40 1023.6
20230208054547 48 338 3.5 3.5 0.00 0.00 0.00 40 1024.0
20230208054050 48 338 3.5 5.2 0.00 0.00 0.00 40 1024.0
20230208053547 48 23 3.5 4.3 0.00 0.00 0.00 40 1024.0
20230208053048 48 315 3.5 6.1 0.00 0.00 0.00 40 1024.0
20230208052550 49 338 2.6 3.5 0.00 0.00 0.00 39 1023.8
20230208052051 49 23 3.5 5.2 0.00 0.00 0.00 39 1023.9
20230208051550 49 23 2.6 4.3 0.00 0.00 0.00 40 1023.9
20230208051050 49 45 2.6 3.5 0.00 0.00 0.00 40 1023.9
20230208050547 49 45 2.6 4.3 0.00 0.00 0.00 40 1024.2
20230208050047 49 338 2.6 4.3 0.00 0.00 0.00 40 1024.2
20230208045550 49 203 2.6 3.5 0.00 0.00 0.00 40 1024.2
20230208045047 48 23 3.5 4.3 0.00 0.00 0.00 40 1024.3
20230208044551 48 23 3.5 5.2 0.00 0.00 0.00 40 1023.9
20230208044050 48 0 2.6 5.2 0.00 0.00 0.00 40 1023.9
20230208043547 48 23 2.6 7.0 0.00 0.00 0.00 40 1023.9
20230208043050 48 0 2.6 3.5 0.00 0.00 0.00 40 1024.0
20230208042547 48 338 1.7 2.6 0.00 0.00 0.00 40 1024.1
20230208042047 48 338 1.7 2.6 0.00 0.00 0.00 40 1024.2
20230208041551 48 338 1.7 2.6 0.00 0.00 0.00 40 1024.2
20230208041050 48 180 1.7 1.7 0.00 0.00 0.00 40 1024.2
20230208040547 48 315 1.7 2.6 0.00 0.00 0.00 40 1024.2
20230208040050 48 338 1.7 1.7 0.00 0.00 0.00 40 1024.3
20230208035550 48 315 0.9 1.7 0.00 0.00 0.00 39 1024.3
20230208035050 48 315 0.9 1.7 0.00 0.00 0.00 39 1024.3
20230208034547 48 293 0.9 1.7 0.00 0.00 0.00 39 1023.9
20230208034047 49 270 0.0 1.7 0.00 0.00 0.00 38 1023.9
20230208033547 49 315 0.9 0.9 0.00 0.00 0.00 38 1023.9
20230208033050 49 23 0.9 1.7 0.00 0.00 0.00 38 1023.9
20230208032550 49 23 0.9 1.7 0.00 0.00 0.00 37 1023.8
20230208032047 49 23 0.9 1.7 0.00 0.00 0.00 37 1023.8
20230208031550 49 23 0.9 0.9 0.00 0.00 0.00 37 1023.8
20230208031051 50 45 0.9 0.9 0.00 0.00 0.00 36 1023.8
20230208030547 50 23 0.0 0.9 0.00 0.00 0.00 36 1023.6
20230208030050 51 23 0.0 0.0 0.00 0.00 0.00 35 1023.6
20230208025547 51 203 0.0 0.9 0.00 0.00 0.00 35 1023.6
20230208025047 52 225 0.0 0.9 0.00 0.00 0.00 35 1023.6
20230208024550 52 315 0.0 0.0 0.00 0.00 0.00 34 1023.4
20230208024048 52 293 0.0 0.0 0.00 0.00 0.00 34 1023.3
20230208023547 52 293 0.9 1.7 0.00 0.00 0.00 34 1023.3
20230208023047 53 315 0.9 2.6 0.00 0.00 0.00 33 1023.3
20230208022547 53 113 0.9 1.7 0.00 0.00 0.00 33 1023.4
20230208022047 53 113 0.9 1.7 0.00 0.00 0.00 33 1023.3
20230208021547 53 68 0.9 1.7 0.00 0.00 0.00 33 1023.3
20230208021048 54 315 1.7 1.7 0.00 0.00 0.00 32 1023.3
20230208020550 54 270 1.7 4.3 0.00 0.00 0.00 32 1022.9
20230208020047 54 270 1.7 2.6 0.00 0.00 0.00 32 1022.9
20230208015547 54 338 1.7 2.6 0.00 0.00 0.00 32 1022.8
20230208015050 55 315 1.7 2.6 0.00 0.00 0.00 31 1022.8
20230208014547 55 270 0.9 3.5 0.00 0.00 0.00 31 1022.7
20230208014051 56 293 1.7 2.6 0.00 0.00 0.00 31 1022.7
20230208013547 56 248 2.6 3.5 0.00 0.00 0.00 30 1022.7
20230208013050 56 338 2.6 4.3 0.00 0.00 0.00 30 1022.7
20230208012547 56 270 3.5 4.3 0.00 0.00 0.00 30 1022.2
20230208012047 57 315 3.5 7.0 0.00 0.00 0.00 30 1022.1
20230208011547 57 135 2.6 5.2 0.00 0.00 0.00 30 1022.1
20230208011051 57 338 3.5 3.5 0.00 0.00 0.00 29 1022.1
20230208010548 57 315 4.3 7.0 0.00 0.00 0.00 29 1023.0
20230208010050 58 270 4.3 7.0 0.00 0.00 0.00 29 1022.9
20230208005547 58 338 3.5 5.2 0.00 0.00 0.00 29 1022.9
20230208005047 58 293 3.5 5.2 0.00 0.00 0.00 28 1022.9
20230208004547 58 293 3.5 4.3 0.00 0.00 0.00 28 1022.5
20230208004048 59 315 3.5 7.0 0.00 0.00 0.00 28 1022.5
20230208003547 59 315 3.5 5.2 0.00 0.00 0.00 28 1022.4
20230208003047 59 248 3.5 5.2 0.00 0.00 0.00 28 1022.4
20230208002550 59 338 4.3 7.0 0.00 0.00 0.00 28 1022.1
20230208002050 60 293 5.2 6.1 0.00 0.00 0.00 28 1022.1
20230208001550 60 248 5.2 8.7 0.00 0.00 0.00 27 1022.0
20230208001051 60 293 5.2 7.0 0.00 0.00 0.00 27 1022.0
20230208000548 60 338 4.3 7.8 0.00 0.00 0.00 27 1021.6
20230208000050 60 293 3.5 8.7 0.00 0.00 0.00 27 1021.6
20230207235547 60 23 2.6 4.3 0.00 0.00 0.00 27 1021.6
20230207235047 60 315 4.3 5.2 0.00 0.00 0.00 26 1021.5
20230207234547 60 338 6.1 10.4 0.00 0.00 0.00 26 1021.7
20230207234047 60 270 7.0 10.4 0.00 0.00 0.00 27 1021.7
20230207233547 61 293 6.1 9.6 0.00 0.00 0.00 27 1021.6
20230207233048 61 293 5.2 11.3 0.00 0.00 0.00 27 1021.6
20230207232547 61 315 4.3 9.6 0.00 0.00 0.00 26 1021.7
20230207232047 61 315 4.3 6.1 0.00 0.00 0.00 24 1021.7
20230207231550 61 315 3.5 7.0 0.00 0.00 0.00 23 1021.6
20230207231050 61 315 3.5 7.0 0.00 0.00 0.00 23 1021.6
20230207230549 61 23 4.3 7.0 0.00 0.00 0.00 23 1022.4
20230207230047 61 45 5.2 9.6 0.00 0.00 0.00 21 1022.4
20230207225547 62 68 5.2 8.7 0.00 0.00 0.00 21 1022.3
20230207225047 62 315 5.2 8.7 0.00 0.00 0.00 21 1022.3
20230207224547 62 315 5.2 5.2 0.00 0.00 0.00 21 1022.0
20230207224050 62 315 5.2 9.6 0.00 0.00 0.00 21 1021.9
20230207223550 62 45 3.5 5.2 0.00 0.00 0.00 22 1021.9
20230207223047 62 23 3.5 5.2 0.00 0.00 0.00 23 1021.9
20230207222550 62 338 4.3 5.2 0.00 0.00 0.00 23 1021.4
20230207222050 62 315 3.5 8.7 0.00 0.00 0.00 23 1021.4
20230207221550 62 315 3.5 7.8 0.00 0.00 0.00 23 1021.3
20230207221047 61 23 4.3 7.8 0.00 0.00 0.00 23 1021.3
20230207220547 61 338 4.3 6.1 0.00 0.00 0.00 23 1021.1
20230207220050 62 23 5.2 10.4 0.00 0.00 0.00 23 1021.1
20230207215548 61 0 5.2 10.4 0.00 0.00 0.00 23 1021.0
20230207215050 62 23 4.3 7.0 0.00 0.00 0.00 23 1021.0
20230207214552 62 23 3.5 7.0 0.00 0.00 0.00 24 1020.7
20230207214047 62 23 3.5 7.0 0.00 0.00 0.00 26 1020.6
20230207213551 62 315 5.2 7.0 0.00 0.00 0.00 26 1020.6
20230207213050 62 270 5.2 7.0 0.00 0.00 0.00 25 1020.6
20230207212547 62 45 5.2 6.1 0.00 0.00 0.00 23 1020.6
20230207212049 62 68 4.3 8.7 0.00 0.00 0.00 24 1020.6
20230207211547 62 23 4.3 6.1 0.00 0.00 0.00 24 1020.6
20230207211050 62 23 4.3 7.8 0.00 0.00 0.00 25 1020.5
20230207210547 62 23 4.3 7.0 0.00 0.00 0.00 25 1020.0
20230207210050 61 315 4.3 10.4 0.00 0.00 0.00 26 1020.0
20230207205550 62 23 6.1 9.6 0.00 0.00 0.00 25 1020.0
20230207205050 62 315 6.1 9.6 0.00 0.00 0.00 26 1020.0
20230207204547 62 315 5.2 9.6 0.00 0.00 0.00 27 1020.2
20230207204047 62 270 6.1 9.6 0.00 0.00 0.00 27 1020.2
20230207203547 62 270 7.0 10.4 0.00 0.00 0.00 27 1020.2
20230207203050 62 270 7.0 10.4 0.00 0.00 0.00 27 1020.2
20230207202550 62 270 7.8 11.3 0.00 0.00 0.00 27 1020.1
20230207202047 62 270 7.0 10.4 0.00 0.00 0.00 27 1020.1
20230207201550 61 270 6.1 11.3 0.00 0.00 0.00 27 1020.0
20230207201050 61 180 6.1 5.2 0.00 0.00 0.00 28 1020.0
20230207200547 61 315 7.0 7.8 0.00 0.00 0.00 28 1020.2
20230207200047 61 270 7.0 11.3 0.00 0.00 0.00 28 1020.2
20230207195550 61 270 5.2 7.0 0.00 0.00 0.00 28 1020.2
20230207195047 61 315 5.2 7.0 0.00 0.00 0.00 28 1020.2
20230207194548 61 293 6.1 9.6 0.00 0.00 0.00 28 1020.4
20230207194047 61 270 6.1 8.7 0.00 0.00 0.00 28 1020.4
20230207193547 61 270 7.0 12.2 0.00 0.00 0.00 28 1020.4
20230207193050 61 270 6.1 12.2 0.00 0.00 0.00 28 1020.3
20230207192547 61 293 7.0 8.7 0.00 0.00 0.00 28 1020.8
20230207192050 61 270 6.1 9.6 0.00 0.00 0.00 28 1020.8
20230207191550 62 315 5.2 7.8 0.00 0.00 0.00 28 1020.8
20230207191047 62 270 6.1 7.8 0.00 0.00 0.00 29 1020.7
20230207190547 62 270 6.1 7.8 0.00 0.00 0.00 29 1020.8
20230207190047 62 270 6.1 7.8 0.00 0.00 0.00 29 1020.8
20230207185550 62 270 5.2 8.7 0.00 0.00 0.00 28 1020.7
20230207185047 62 270 4.3 8.7 0.00 0.00 0.00 28 1020.7
20230207184550 63 338 4.3 7.0 0.00 0.00 0.00 27 1020.8
20230207184050 63 315 4.3 7.0 0.00 0.00 0.00 25 1020.8
20230207183550 63 23 3.5 7.8 0.00 0.00 0.00 25 1020.7
20230207183050 63 45 4.3 6.1 0.00 0.00 0.00 25 1020.7
20230207182550 63 315 4.3 6.1 0.00 0.00 0.00 25 1020.7
20230207182050 63 23 4.3 7.8 0.00 0.00 0.00 25 1020.7
20230207181550 64 315 4.3 5.2 0.00 0.00 0.00 25 1020.7
20230207181047 63 135 4.3 5.2 0.00 0.00 0.00 25 1020.6
20230207180547 62 68 5.2 5.2 0.00 0.00 0.00 25 1020.9
20230207180050 62 23 5.2 8.7 0.00 0.00 0.00 25 1020.8
20230207175547 62 23 5.2 7.0 0.00 0.00 0.00 26 1020.8
20230207175047 62 23 6.1 8.7 0.00 0.00 0.00 26 1020.8
20230207174547 62 23 5.2 7.8 0.00 0.00 0.00 26 1020.8
20230207174050 62 338 5.2 12.2 0.00 0.00 0.00 26 1020.8
20230207173547 62 23 5.2 7.8 0.00 0.00 0.00 27 1020.8
20230207173047 62 23 5.2 8.7 0.00 0.00 0.00 27 1020.7
20230207172547 62 45 4.3 10.4 0.00 0.00 0.00 28 1020.8
20230207172047 63 45 4.3 10.4 0.00 0.00 0.00 29 1020.8
20230207171550 62 315 2.6 6.1 0.00 0.00 0.00 29 1020.8
20230207171050 63 23 1.7 6.1 0.00 0.00 0.00 34 1020.8
20230207170550 63 248 2.6 3.5 0.00 0.00 0.00 34 1020.9
20230207170050 63 315 1.7 2.6 0.00 0.00 0.00 34 1020.9
20230207165547 62 248 1.7 3.5 0.00 0.00 0.00 36 1020.9
20230207165047 62 248 1.7 2.6 0.00 0.00 0.00 37 1020.9
20230207164550 62 248 0.9 2.6 0.00 0.00 0.00 37 1021.2